Location: ????????
(55.3975°N, 38.2844°E)
Time: 14:36:01
(UTC+00:00)

BlueWalker 3 - Pass Details

Date: 21 August 2024
Orbit: 475 x 487 km, 53.2° (Epoch: 14 September)

Event Time Altitude Azimuth Distance (km) Brightness Sun altitude
Exits shadow 00:34:44 13° 266° (W) 1,479 3.9 -12.3°
Maximum altitude 00:37:33 32° 207° (SSW) 872 2.6 -12.0°
Drops below altitude 10° 00:40:57 10° 144° (SE) 1,680 4.5 -11.7°
Sets 00:43:15 0° 134° (SE) 2,559 5.6 -11.4°
